STARLINK-1536, 46070

Orbit data source: Space-Track

STARLINK-1536, 46070 is a payload satellite owned by SpaceX/Seattle (US) in LEO that was launched on Fri, 07 Aug 2020 UTC via an FALCON 9 launch vehicle from the Air Force Eastern Test Range (AFETR). Payload-class satellites include a variety of spacecraft equipped with specific instruments for various scientific and technological missions. These include communications satellites like Starlink; space stations such as the ISS; scientific satellites like the Hubble; Earth observation satellites from companies like Planet Labs, Umbra, and HawkEye 360; GPS; miniature CubeSats for education and research; and military/defense satellites.

Loading next visibility...
Identifier
46070, 2020-055AV
Orbit
LEO
Country
Flag of USUS
Related business
Manufacturer
SpaceX/Seattle
Mission
Operational Commercial Communications
Bus & Motor
STARLINK, Unknown motor
Mass
260 kg wet, ~248 kg dry
Launch date (UTC)
2020-08-07 (6 years ago)
Launch vehicle
FALCON 9
Launch site
Air Force Eastern Test Range (AFETR)
Object type
Payload
Rocket body
Debris
Shape & HBR
Box + 1 Pan, 10.1 m
Radar Cross Section
13.562 m², Large (>1 m²)

Expand to show TLE details & history
Last TLE update: 22 hours ago

TLE from 22 hours ago
0 STARLINK-1536
1 46070U 20055AV  26197.44812275 -.00000474  00000-0 -35080-5 0  9995
2 46070  53.1592 222.6618 0001100  83.8575 276.2552 15.31700593328960
Epoch: 2026-07-16T10:45Z
TLE epoch observation values (Epoch: 2026-07-16T10:45:17.805Z)
Latitude
-0°
Longitude
127.04817°
Altitude
471.556 km
Speed
7.632 km/s
True Right ascension
14h 50m 38s
True Declination
0° 00' 00"
Sunlit
Object was in daylight at epoch
Visualization orbit readout
Latitude
Unknown
Longitude
Unknown
Altitude
Unknown
Speed
Unknown
Apparent Right ascension
Unknown
Apparent Declination
Unknown
Sunlit
N/A
Visualization observer readout
Local Sidereal Time
21:35:37
Azimuth
Unknown
Elevation
Unknown
Doppler factor
Unknown
Orbital elements
Apogee altitude
471.748 km
Perigee altitude
470.242 km
Semi-major axis
6,849.132 km
Eccentricity
0.00011
Inclination
53.1592°
RAAN
222.6618°
Arg. of periapsis
83.8575°
True anomaly
276.24267°
Mean anomaly
276.2552°
Eccentric anomaly
276.24893°
Mean motion
3.82904 °/min
Orbital period
94.02 mins
BSTAR
-0.000003508
Loading maneuver chart data...
Computing Atmospheric mass density...
Loading historical data...
Loading historical data...
Loading historical data...
Loading historical data...
Loading historical data...
Loading historical data...
Loading historical data...

Documentation

Showing up to 5 results
|